timestamp,wind_dir_avg,wind_spd_avg,wind_spd_max_dir,wind_spd_gust,battery_voltage,lat,long
2024-04-01 00:04:00+00:00,239.0,5.14,250.0,9.29,12.25,47.59359,-54.27349
2024-04-01 00:14:00+00:00,258.0,8.8,260.0,9.31,12.17,47.59359,-54.27349
2024-04-01 00:24:00+00:00,258.0,6.69,262.0,8.91,12.17,47.59359,-54.27349
2024-04-01 00:34:00+00:00,257.0,4.91,268.0,8.82,12.17,47.59359,-54.27349
2024-04-01 00:44:00+00:00,259.0,5.34,267.0,8.94,12.17,47.59359,-54.27349
2024-04-01 00:54:00+00:00,267.0,3.93,275.0,4.25,12.17,47.59359,-54.27349
2024-04-01 01:04:00+00:00,265.0,5.29,268.0,8.98,12.17,47.59359,-54.27349
2024-04-01 01:14:00+00:00,270.0,6.35,271.0,8.88,12.17,47.59359,-54.27349
2024-04-01 01:24:00+00:00,270.0,3.92,270.0,4.3,12.17,47.59359,-54.27349
2024-04-01 01:34:00+00:00,269.0,3.77,269.0,4.56,12.17,47.59359,-54.27349
2024-04-01 01:44:00+00:00,275.0,0.91,278.0,3.52,12.17,47.59359,-54.27349
2024-04-01 01:54:00+00:00,270.0,4.95,269.0,8.58,12.17,47.59359,-54.27349
2024-04-01 02:04:00+00:00,275.0,3.76,275.0,3.97,12.17,47.59359,-54.27349
2024-04-01 02:14:00+00:00,269.0,4.26,275.0,8.14,12.17,47.59359,-54.27349
2024-04-01 02:24:00+00:00,263.0,4.03,266.0,8.42,12.17,47.59359,-54.27349
2024-04-01 02:34:00+00:00,264.0,5.15,264.0,9.0,12.17,47.59359,-54.27349
2024-04-01 02:44:00+00:00,271.0,4.2,270.0,8.11,12.17,47.59359,-54.27349
2024-04-01 02:54:00+00:00,274.0,5.74,271.0,8.75,12.17,47.59359,-54.27349
2024-04-01 03:04:00+00:00,270.0,8.74,267.0,9.25,12.17,47.59359,-54.27349
2024-04-01 03:14:01+00:00,269.0,4.68,265.0,8.25,12.09,47.59359,-54.27349
2024-04-01 03:24:01+00:00,270.0,4.77,269.0,8.68,12.09,47.59359,-54.27349
2024-04-01 03:34:01+00:00,270.0,7.41,270.0,9.37,12.09,47.59359,-54.27349
2024-04-01 03:44:01+00:00,266.0,4.12,271.0,6.03,12.09,47.59359,-54.27349
2024-04-01 03:54:01+00:00,270.0,3.94,276.0,5.55,12.09,47.59359,-54.27349
2024-04-01 04:04:01+00:00,269.0,1.65,267.0,3.31,12.09,47.59359,-54.27349
2024-04-01 04:14:00+00:00,261.0,3.4,261.0,3.88,12.09,47.59359,-54.27349
2024-04-01 04:24:00+00:00,255.0,5.06,257.0,8.72,12.09,47.59359,-54.27349
2024-04-01 04:34:00+00:00,233.0,4.55,227.0,5.09,12.09,47.59359,-54.27349
2024-04-01 04:44:00+00:00,249.0,4.07,244.0,4.41,12.09,47.59359,-54.27349
2024-04-01 04:54:00+00:00,256.0,3.91,262.0,4.2,12.09,47.59359,-54.27349
2024-04-01 05:04:00+00:00,256.0,4.78,261.0,8.14,12.09,47.59359,-54.27349
2024-04-01 05:14:01+00:00,248.0,4.09,246.0,4.4,12.09,47.59359,-54.27349
2024-04-01 05:24:01+00:00,243.0,4.38,260.0,7.53,12.09,47.59359,-54.27349
2024-04-01 05:34:01+00:00,221.0,3.44,231.0,4.49,12.09,47.59359,-54.27349
2024-04-01 05:44:01+00:00,231.0,4.46,231.0,5.18,12.09,47.59359,-54.27349
2024-04-01 05:54:01+00:00,145.0,2.09,142.0,2.63,12.09,47.59359,-54.27349
2024-04-01 06:04:01+00:00,204.0,2.91,228.0,4.35,12.09,47.59359,-54.27349
2024-04-01 06:14:00+00:00,219.0,3.27,226.0,4.32,12.09,47.59359,-54.27349
2024-04-01 06:24:00+00:00,225.0,4.49,228.0,4.92,12.09,47.59359,-54.27349
2024-04-01 06:34:00+00:00,226.0,3.81,228.0,5.03,12.09,47.59359,-54.27349
2024-04-01 06:44:00+00:00,156.0,2.24,240.0,3.5,12.09,47.59359,-54.27349
2024-04-01 06:54:00+00:00,147.0,2.61,148.0,3.09,12.09,47.59359,-54.27349
2024-04-01 07:04:00+00:00,131.0,2.14,143.0,2.5,12.09,47.59359,-54.27349
2024-04-01 07:14:01+00:00,233.0,2.96,236.0,3.99,12.01,47.59359,-54.27349
2024-04-01 07:24:01+00:00,233.0,4.05,236.0,4.56,12.01,47.59359,-54.27349
2024-04-01 07:34:01+00:00,243.0,3.0,242.0,4.12,12.01,47.59359,-54.27349
2024-04-01 07:44:01+00:00,249.0,3.75,255.0,7.38,12.01,47.59359,-54.27349
2024-04-01 07:54:01+00:00,261.0,2.68,267.0,3.71,12.01,47.59359,-54.27349
2024-04-01 08:04:01+00:00,244.0,4.5,255.0,7.59,12.01,47.59359,-54.27349
2024-04-01 08:14:01+00:00,232.0,4.49,232.0,4.96,12.01,47.59359,-54.27349
2024-04-01 08:24:01+00:00,228.0,3.69,233.0,4.56,12.01,47.59359,-54.27349
2024-04-01 08:34:01+00:00,235.0,3.23,241.0,4.03,12.01,47.59359,-54.27349
2024-04-01 08:44:01+00:00,137.0,2.03,135.0,2.35,12.01,47.59359,-54.27349
2024-04-01 08:54:01+00:00,238.0,4.32,234.0,4.77,12.01,47.59359,-54.27349
2024-04-01 09:04:01+00:00,243.0,4.2,242.0,4.65,12.01,47.59359,-54.27349
2024-04-01 09:14:01+00:00,176.0,1.76,233.0,3.86,12.01,47.59359,-54.27349
2024-04-01 09:24:01+00:00,143.0,2.04,143.0,2.41,12.01,47.59359,-54.27349
2024-04-01 09:34:01+00:00,241.0,3.49,238.0,3.93,12.01,47.59359,-54.27349
2024-04-01 09:44:01+00:00,232.0,3.84,235.0,4.5,12.01,47.59359,-54.27349
2024-04-01 09:54:01+00:00,250.0,3.15,251.0,3.86,12.01,47.59359,-54.27349
2024-04-01 10:04:01+00:00,253.0,3.42,239.0,4.37,12.01,47.59359,-54.27349
2024-04-01 10:14:00+00:00,240.0,3.29,241.0,3.78,12.01,47.59359,-54.27349
2024-04-01 10:24:00+00:00,243.0,3.69,247.0,4.01,12.01,47.59359,-54.27349
2024-04-01 10:34:00+00:00,244.0,4.01,240.0,4.31,12.01,47.59359,-54.27349
2024-04-01 10:44:00+00:00,243.0,2.67,249.0,3.54,12.01,47.59359,-54.27349
2024-04-01 10:54:00+00:00,253.0,3.96,256.0,5.8,12.01,47.59359,-54.27349
2024-04-01 11:04:00+00:00,245.0,3.22,244.0,3.73,12.01,47.59359,-54.27349
2024-04-01 11:14:00+00:00,240.0,2.4,249.0,3.63,12.41,47.59359,-54.27349
2024-04-01 11:24:00+00:00,243.0,2.71,239.0,3.48,12.41,47.59359,-54.27349
2024-04-01 11:34:00+00:00,140.0,1.62,244.0,2.61,12.41,47.59359,-54.27349
2024-04-01 11:44:00+00:00,126.0,1.91,132.0,2.19,12.41,47.59359,-54.27349
2024-04-01 11:54:00+00:00,93.0,2.0,92.0,2.25,12.41,47.59359,-54.27349
2024-04-01 12:04:00+00:00,85.0,1.2,272.0,2.53,12.41,47.59359,-54.27349
2024-04-01 12:14:00+00:00,56.0,2.92,56.0,3.15,12.97,47.59359,-54.27349
2024-04-01 12:24:00+00:00,55.0,2.26,52.0,2.62,12.97,47.59359,-54.27349
2024-04-01 12:34:00+00:00,33.0,3.11,37.0,3.49,12.97,47.59359,-54.27349
2024-04-01 12:44:00+00:00,31.0,3.13,32.0,3.38,12.97,47.59359,-54.27349
2024-04-01 12:54:00+00:00,39.0,2.5,36.0,2.89,12.97,47.59359,-54.27349
2024-04-01 13:04:00+00:00,52.0,2.88,54.0,3.43,12.97,47.59359,-54.27349
2024-04-01 13:14:00+00:00,62.0,2.44,66.0,2.63,13.44,47.59359,-54.27349
2024-04-01 13:24:00+00:00,67.0,2.66,72.0,2.92,13.44,47.59359,-54.27349
2024-04-01 13:34:00+00:00,53.0,1.65,68.0,3.09,13.44,47.59359,-54.27349
2024-04-01 13:44:00+00:00,315.0,0.67,315.0,0.79,13.44,47.59359,-54.27349
2024-04-01 13:54:00+00:00,276.0,0.41,278.0,0.53,13.44,47.59359,-54.27349
2024-04-01 14:04:00+00:00,34.0,0.23,65.0,0.41,13.44,47.59359,-54.27349
2024-04-01 14:14:01+00:00,311.0,2.16,319.0,2.47,13.68,47.59359,-54.27349
2024-04-01 14:24:01+00:00,320.0,2.13,331.0,2.54,13.68,47.59359,-54.27349
2024-04-01 14:34:01+00:00,296.0,1.7,302.0,1.96,13.68,47.59359,-54.27349
2024-04-01 14:44:01+00:00,283.0,1.57,280.0,2.71,13.68,47.59359,-54.27349
2024-04-01 14:54:01+00:00,57.0,0.54,281.0,1.21,13.68,47.59359,-54.27349
2024-04-01 15:04:01+00:00,315.0,0.01,71.0,0.0,13.68,47.59359,-54.27349
2024-04-01 15:14:00+00:00,198.0,0.48,206.0,0.55,13.53,47.59359,-54.27349
2024-04-01 15:24:00+00:00,203.0,1.24,211.0,1.56,13.53,47.59359,-54.27349
2024-04-01 15:34:00+00:00,137.0,2.57,133.0,2.81,13.53,47.59359,-54.27349
2024-04-01 15:44:00+00:00,152.0,2.96,152.0,3.11,13.53,47.59359,-54.27349
2024-04-01 15:54:00+00:00,158.0,2.79,153.0,3.12,13.53,47.59359,-54.27349
2024-04-01 16:04:00+00:00,136.0,2.83,138.0,2.99,13.53,47.59359,-54.27349
2024-04-01 16:14:00+00:00,154.0,3.48,154.0,3.79,13.44,47.59359,-54.27349
2024-04-01 16:24:00+00:00,151.0,3.75,150.0,3.97,13.44,47.59359,-54.27349
2024-04-01 16:34:00+00:00,159.0,3.04,144.0,3.42,13.44,47.59359,-54.27349
2024-04-01 16:44:00+00:00,142.0,2.41,147.0,2.98,13.44,47.59359,-54.27349
2024-04-01 16:54:00+00:00,154.0,2.71,144.0,2.97,13.44,47.59359,-54.27349
2024-04-01 17:04:00+00:00,150.0,2.81,148.0,3.07,13.44,47.59359,-54.27349
2024-04-01 17:14:00+00:00,137.0,1.08,121.0,1.49,13.53,47.59359,-54.27349
2024-04-01 17:24:00+00:00,104.0,1.87,105.0,2.05,13.53,47.59359,-54.27349
2024-04-01 17:34:00+00:00,96.0,1.73,93.0,1.89,13.53,47.59359,-54.27349
2024-04-01 17:44:00+00:00,78.0,1.64,79.0,1.8,13.53,47.59359,-54.27349
2024-04-01 17:54:00+00:00,74.0,1.7,75.0,1.91,13.53,47.59359,-54.27349
2024-04-01 18:04:00+00:00,69.0,1.85,69.0,1.99,13.53,47.59359,-54.27349
2024-04-01 18:14:00+00:00,66.0,2.13,64.0,2.32,13.53,47.59359,-54.27349
2024-04-01 18:24:00+00:00,42.0,2.46,51.0,3.26,13.53,47.59359,-54.27349
2024-04-01 18:34:00+00:00,351.0,2.26,345.0,2.64,13.53,47.59359,-54.27349
2024-04-01 18:44:00+00:00,349.0,2.63,353.0,2.78,13.53,47.59359,-54.27349
2024-04-01 18:54:00+00:00,354.0,2.43,359.0,2.8,13.53,47.59359,-54.27349
2024-04-01 19:04:00+00:00,353.0,2.01,350.0,2.18,13.53,47.59359,-54.27349
2024-04-01 19:14:00+00:00,343.0,1.71,343.0,1.73,13.53,47.59359,-54.27349
2024-04-01 19:24:00+00:00,339.0,1.79,339.0,1.86,13.53,47.59359,-54.27349
2024-04-01 19:34:00+00:00,347.0,1.87,25.0,2.05,13.53,47.59359,-54.27349
2024-04-01 19:44:00+00:00,334.0,1.76,336.0,1.82,13.53,47.59359,-54.27349
2024-04-01 19:54:00+00:00,315.0,0.01,330.0,0.0,13.53,47.59359,-54.27349
2024-04-01 20:04:00+00:00,329.0,1.61,314.0,2.14,13.53,47.59359,-54.27349
2024-04-01 20:14:00+00:00,312.0,1.7,308.0,1.98,13.29,47.59359,-54.27349
2024-04-01 20:24:00+00:00,126.0,1.06,107.0,2.23,13.29,47.59359,-54.27349
2024-04-01 20:34:00+00:00,177.0,0.4,103.0,2.21,13.29,47.59359,-54.27349
2024-04-01 20:44:00+00:00,250.0,1.55,251.0,1.8,13.29,47.59359,-54.27349
2024-04-01 20:54:00+00:00,268.0,1.4,267.0,1.6,13.29,47.59359,-54.27349
2024-04-01 21:04:00+00:00,315.0,0.01,288.0,0.0,13.29,47.59359,-54.27349
2024-04-01 21:14:00+00:00,315.0,0.01,257.0,0.0,12.97,47.59359,-54.27349
2024-04-01 21:24:00+00:00,279.0,1.21,281.0,1.27,12.97,47.59359,-54.27349
2024-04-01 21:34:00+00:00,315.0,0.01,279.0,0.0,12.97,47.59359,-54.27349
2024-04-01 21:44:00+00:00,315.0,0.01,267.0,0.0,12.97,47.59359,-54.27349
2024-04-01 21:54:00+00:00,280.0,1.37,283.0,1.52,12.97,47.59359,-54.27349
2024-04-01 22:04:00+00:00,315.0,0.01,286.0,0.0,12.97,47.59359,-54.27349
2024-04-01 22:14:00+00:00,315.0,0.01,286.0,0.0,12.49,47.59359,-54.27349
2024-04-01 22:24:00+00:00,315.0,0.01,286.0,0.0,12.49,47.59359,-54.27349
2024-04-01 22:34:00+00:00,315.0,0.01,286.0,0.0,12.49,47.59359,-54.27349
2024-04-01 22:44:00+00:00,315.0,0.01,286.0,0.0,12.49,47.59359,-54.27349
2024-04-01 22:54:00+00:00,315.0,0.01,286.0,0.0,12.49,47.59359,-54.27349
2024-04-01 23:04:00+00:00,315.0,0.01,286.0,0.0,12.49,47.59359,-54.27349
2024-04-01 23:14:00+00:00,315.0,0.01,286.0,0.0,12.17,47.59359,-54.27349
2024-04-01 23:24:00+00:00,315.0,0.01,286.0,0.0,12.17,47.59359,-54.27349
2024-04-01 23:34:00+00:00,315.0,0.01,286.0,0.0,12.17,47.59359,-54.27349
2024-04-01 23:44:00+00:00,315.0,0.01,28.0,0.0,12.17,47.59359,-54.27349
2024-04-01 23:54:00+00:00,28.0,4.56,32.0,4.93,12.17,47.59359,-54.27349
